Location: Newark
(25.4297°S, 49.2719°W)
Time: 04:06:36
(UTC+00:00)

deb Explorer IX - Visible Passes

Search period start: 13 November 2019 00:00
Search period end: 23 November 2019 00:00
Orbit: 546 x 1105 km, 38.8° (Epoch: 12 November)

Date Brightness Start Highest point End Pass type
(mag) Time Alt. Az. Time Alt. Az. Time Alt. Az.
13 Nov ? 00:24:56 10° WSW 00:31:44 76° SSW 00:31:44 76° SSW visible
13 Nov ? 22:15:44 10° SW 22:22:02 35° SSE 22:28:40 10° E visible
14 Nov ? 00:02:53 10° WSW 00:10:11 83° SSE 00:10:47 76° E visible
14 Nov ? 01:51:19 10° W 01:52:09 13° W 01:52:09 13° W visible
14 Nov ? 23:40:51 10° WSW 23:48:05 84° SSE 23:49:53 56° ENE visible
15 Nov ? 01:29:16 10° W 01:31:15 17° W 01:31:15 17° W visible
15 Nov ? 23:18:50 10° WSW 23:25:59 86° SSE 23:29:01 39° ENE visible
16 Nov ? 01:07:14 10° W 01:10:23 21° WNW 01:10:23 21° WNW visible
16 Nov ? 22:56:51 10° WSW 23:03:52 87° SSE 23:08:13 27° ENE visible
17 Nov ? 00:45:14 10° W 00:49:36 25° WNW 00:49:36 25° WNW visible
17 Nov ? 22:34:52 10° WSW 22:41:47 89° SE 22:47:27 18° ENE visible
18 Nov ? 00:23:14 10° W 00:28:50 26° NW 00:28:50 26° NW visible
18 Nov ? 22:12:55 10° WSW 22:19:40 90° SSE 22:26:46 11° ENE visible
19 Nov ? 00:01:16 10° W 00:06:53 25° NW 00:08:09 24° NNW visible
19 Nov ? 23:39:20 10° W 23:44:48 24° NW 23:47:30 20° NNW visible
20 Nov ? 23:17:24 10° W 23:22:42 24° NW 23:26:56 14° N visible
21 Nov ? 22:55:31 10° W 23:00:37 23° NW 23:06:00 10° N visible
22 Nov ? 22:33:39 10° W 22:38:32 22° NW 22:43:44 10° N visible
